This is the latest recevied weather packets stored in our database for station/object N5COP-13. If no packets are shown the sender has not sent any weather packets the latest 10 day(s).
| Time | Temp. | Humidity | Pressure | Rain* | Wind** | Luminosity | Snow |
|---|---|---|---|---|---|---|---|
| 1778081638 | 10.56° C | 62% | 1016.5 hPa | 0 mm | - | 616 W/m² | - |
| 1778081335 | 10° C | 62% | 1016.8 hPa | 0 mm | - | 615 W/m² | - |
| 1778081032 | 10° C | 62% | 1016.6 hPa | 0 mm | - | 597 W/m² | - |
| 1778080731 | 10° C | 64% | 1016.6 hPa | 0 mm | - | 581 W/m² | - |
| 1778080427 | 10° C | 65% | 1016.5 hPa | 0 mm | - | 573 W/m² | - |
| 1778080125 | 9.44° C | 66% | 1016.6 hPa | 0 mm | - | 559 W/m² | - |
| 1778079821 | 8.89° C | 67% | 1016.5 hPa | 0 mm | - | 540 W/m² | - |
| 1778079518 | 8.89° C | 67% | 1016.5 hPa | 0 mm | - | 512 W/m² | - |
| 1778079214 | 8.89° C | 69% | 1016.4 hPa | 0 mm | - | 493 W/m² | - |
| 1778078912 | 8.89° C | 70% | 1016.5 hPa | 0 mm | - | 490 W/m² | - |
| 1778078608 | 7.78° C | 71% | 1016.2 hPa | 0 mm | - | 469 W/m² | - |
| 1778078307 | 8.33° C | 71% | 1016.4 hPa | 0 mm | - | 192 W/m² | - |
| 1778078003 | 7.78° C | 72% | 1016.2 hPa | 0 mm | - | 427 W/m² | - |
| 1778077702 | 7.78° C | 72% | 1016.4 hPa | 0 mm | - | 386 W/m² | - |
| 1778077400 | 7.78° C | 73% | 1016.1 hPa | 0 mm | - | 366 W/m² | - |
| 1778077097 | 7.22° C | 74% | 1016 hPa | 0 mm | - | 204 W/m² | - |
| 1778076795 | 6.67° C | 74% | 1016 hPa | 0 mm | - | 185 W/m² | - |
| 1778076494 | 6.67° C | 74% | 1016 hPa | 0 mm | - | 166 W/m² | - |
| 1778076190 | 6.67° C | 75% | 1016.1 hPa | 0 mm | - | 243 W/m² | - |
| 1778075888 | 6.67° C | 76% | 1016.2 hPa | 0 mm | - | 131 W/m² | - |
| 1778075583 | 6.67° C | 76% | 1016 hPa | 0 mm | - | 179 W/m² | - |
| 1778075280 | 6.67° C | 77% | 1015.9 hPa | 0 mm | - | 216 W/m² | - |
| 1778074976 | 6.67° C | 78% | 1015.9 hPa | 0 mm | - | 242 W/m² | - |
| 1778074674 | 6.11° C | 78% | 1015.6 hPa | 0 mm | - | 124 W/m² | - |
| 1778074371 | 6.11° C | 78% | 1015.9 hPa | 0 mm | - | 141 W/m² | - |
* Rain latest hour (hover to see other rain measurements)
** Current wind speed in m/s (hover to see current wind gust speed)